HUN91C CYYZ-LHBP

Flight info

Callsign HUN91C
Flight time N/A
Altitude 37000
Route VERDO7 IPTOS DCT ANCER DCT JANJO/M084F370 DCT 56N050W 57N040W 58N030W 58N020W DCT GOMUP/N0481F370 DCT GINGA/N0484F390 DCT TLA N97 NATEB N610 LONAM/N0489F410 DCT BEDUM DCT MALYK DCT DLE DCT LARET DCT KENIG DCT TALEG DCT MAREM DCT BEKVI DCT ODNEM DCT NIT DCT ARFOX
Aircraft A359/H-SDE2E3GHIJ1J3J4J5LM1ORWXYZ/LB1D1

Departure

Time 2026-05-06 11:09
Airport Toronto Pearson International Airport (CYYZ)

Arrival

Time N/A
Airport Budapest Liszt Ferenc International Airport (LHBP)
Time Latitude Longitude Altitude Speed Heading
2026-05-06 10:45 43.68307 -79.62135 576 ft 0 kts 112°
2026-05-06 10:55 43.68317 -79.62165 577 ft 4 kts 112°
2026-05-06 10:55 43.68327 -79.62199 577 ft 3 kts 112°
2026-05-06 10:55 43.68334 -79.62227 574 ft 4 kts 87°
2026-05-06 10:56 43.68326 -79.62260 577 ft 4 kts 51°
2026-05-06 10:56 43.68310 -79.62285 574 ft 1 kts 44°
2026-05-06 10:56 43.68294 -79.62309 577 ft 4 kts 66°
2026-05-06 10:56 43.68291 -79.62341 577 ft 4 kts 122°
2026-05-06 10:57 43.68308 -79.62365 579 ft 4 kts 139°
2026-05-06 10:57 43.68329 -79.62389 575 ft 4 kts 139°
2026-05-06 10:57 43.68336 -79.62398 577 ft 0 kts 139°
2026-05-06 11:00 43.68333 -79.62394 571 ft 4 kts 138°
2026-05-06 11:00 43.68297 -79.62382 575 ft 4 kts 194°
2026-05-06 11:00 43.68270 -79.62406 573 ft 7 kts 213°
2026-05-06 11:01 43.68220 -79.62416 576 ft 6 kts 167°
2026-05-06 11:01 43.68177 -79.62370 573 ft 10 kts 136°
2026-05-06 11:01 43.68112 -79.62285 576 ft 15 kts 137°
2026-05-06 11:01 43.68029 -79.62177 574 ft 15 kts 136°
2026-05-06 11:02 43.67955 -79.62093 570 ft 15 kts 150°
2026-05-06 11:02 43.67851 -79.62010 572 ft 18 kts 140°
2026-05-06 11:02 43.67768 -79.61903 573 ft 17 kts 136°
2026-05-06 11:02 43.67677 -79.61784 576 ft 19 kts 137°
2026-05-06 11:03 43.67588 -79.61667 575 ft 16 kts 136°
2026-05-06 11:03 43.67496 -79.61547 573 ft 20 kts 136°
2026-05-06 11:03 43.67391 -79.61412 571 ft 21 kts 136°
2026-05-06 11:03 43.67295 -79.61285 571 ft 17 kts 137°
2026-05-06 11:04 43.67219 -79.61186 574 ft 14 kts 136°
2026-05-06 11:04 43.67157 -79.61150 571 ft 6 kts 205°
2026-05-06 11:04 43.67120 -79.61198 571 ft 11 kts 225°
2026-05-06 11:04 43.67047 -79.61304 574 ft 19 kts 226°
2026-05-06 11:05 43.66948 -79.61447 576 ft 20 kts 227°
2026-05-06 11:05 43.66854 -79.61584 575 ft 19 kts 226°
2026-05-06 11:05 43.66749 -79.61738 574 ft 25 kts 226°
2026-05-06 11:05 43.66632 -79.61906 573 ft 22 kts 226°
2026-05-06 11:06 43.66535 -79.62047 572 ft 19 kts 227°
2026-05-06 11:06 43.66498 -79.62197 567 ft 16 kts 262°
2026-05-06 11:06 43.66424 -79.62318 569 ft 20 kts 221°
2026-05-06 11:06 43.66321 -79.62442 573 ft 12 kts 222°
2026-05-06 11:07 43.66254 -79.62499 568 ft 11 kts 195°
2026-05-06 11:07 43.66211 -79.62488 572 ft 2 kts 134°
2026-05-06 11:07 43.66189 -79.62456 573 ft 7 kts 132°
2026-05-06 11:07 43.66144 -79.62394 571 ft 10 kts 135°
2026-05-06 11:08 43.66114 -79.62334 577 ft 6 kts 96°
2026-05-06 11:08 43.66125 -79.62310 577 ft 0 kts 46°
2026-05-06 11:08 43.66147 -79.62279 579 ft 24 kts 46°
2026-05-06 11:08 43.66461 -79.61827 578 ft 105 kts 46°
2026-05-06 11:09 43.67131 -79.60857 619 ft 170 kts 48°
2026-05-06 11:09 43.67965 -79.59704 1496 ft 167 kts 46°
2026-05-06 11:09 43.68796 -79.58589 2453 ft 172 kts 47°
2026-05-06 11:09 43.69703 -79.57340 2691 ft 193 kts 47°
2026-05-06 11:10 43.70651 -79.55919 2943 ft 211 kts 53°
2026-05-06 11:10 43.71041 -79.55113 3043 ft 219 kts 61°
2026-05-06 11:10 43.71464 -79.53011 3314 ft 237 kts 84°
2026-05-06 11:10 43.71630 -79.50657 3641 ft 255 kts 85°
2026-05-06 11:11 43.71789 -79.48167 4157 ft 264 kts 85°
2026-05-06 11:11 43.71966 -79.45613 4773 ft 269 kts 84°
2026-05-06 11:11 43.72156 -79.43023 5431 ft 272 kts 83°
2026-05-06 11:11 43.72355 -79.40389 5937 ft 281 kts 83°
2026-05-06 11:12 43.72565 -79.37666 6432 ft 288 kts 83°
2026-05-06 11:12 43.72779 -79.34896 6946 ft 292 kts 83°
2026-05-06 11:12 43.72996 -79.32097 7599 ft 292 kts 84°
2026-05-06 11:12 43.73211 -79.29313 8109 ft 298 kts 85°
2026-05-06 11:13 43.73433 -79.26430 8583 ft 305 kts 85°
2026-05-06 11:13 43.73660 -79.23483 9065 ft 312 kts 85°
2026-05-06 11:13 43.73891 -79.20474 9538 ft 318 kts 86°
2026-05-06 11:13 43.74125 -79.17409 10013 ft 323 kts 86°
2026-05-06 11:14 43.74364 -79.14275 10363 ft 334 kts 86°
2026-05-06 11:14 43.74610 -79.11016 10577 ft 348 kts 86°
2026-05-06 11:14 43.74865 -79.07626 10810 ft 361 kts 86°
2026-05-06 11:14 43.75130 -79.04112 11014 ft 374 kts 87°
2026-05-06 11:15 43.75403 -79.00478 11227 ft 385 kts 87°
2026-05-06 11:15 43.75682 -78.96747 11427 ft 396 kts 87°
2026-05-06 11:15 43.75968 -78.92901 11614 ft 407 kts 86°
2026-05-06 11:15 43.76259 -78.88979 11925 ft 412 kts 86°
2026-05-06 11:16 43.76552 -78.85017 12304 ft 416 kts 87°
2026-05-06 11:16 43.76847 -78.81014 12690 ft 419 kts 87°
2026-05-06 11:16 43.77303 -78.77010 13052 ft 425 kts 77°
2026-05-06 11:16 43.78343 -78.73161 13464 ft 429 kts 66°
2026-05-06 11:17 43.79628 -78.69416 13818 ft 433 kts 64°
2026-05-06 11:17 43.80951 -78.65649 14094 ft 438 kts 64°
2026-05-06 11:17 43.82284 -78.61839 14414 ft 441 kts 64°
2026-05-06 11:17 43.83617 -78.58005 14797 ft 443 kts 65°
2026-05-06 11:18 43.84952 -78.54148 15191 ft 445 kts 65°
2026-05-06 11:18 43.86286 -78.50281 15622 ft 445 kts 65°
2026-05-06 11:18 43.87624 -78.46394 15937 ft 448 kts 65°
2026-05-06 11:18 43.88969 -78.42482 16272 ft 451 kts 65°
2026-05-06 11:19 43.90321 -78.38539 16602 ft 454 kts 65°
2026-05-06 11:19 43.91679 -78.34575 16932 ft 457 kts 65°
2026-05-06 11:19 43.93045 -78.30580 17254 ft 459 kts 65°
2026-05-06 11:19 43.94418 -78.26559 17586 ft 462 kts 65°
2026-05-06 11:20 43.95795 -78.22521 17911 ft 465 kts 65°
2026-05-06 11:20 43.97178 -78.18457 18226 ft 467 kts 65°
2026-05-06 11:20 43.98570 -78.14361 18497 ft 470 kts 65°
2026-05-06 11:20 43.99970 -78.10237 18803 ft 474 kts 65°
2026-05-06 11:21 44.01378 -78.06082 19048 ft 477 kts 65°
2026-05-06 11:21 44.02792 -78.01904 19329 ft 479 kts 65°
2026-05-06 11:21 44.04210 -77.97704 19604 ft 481 kts 65°
2026-05-06 11:21 44.05634 -77.93482 19852 ft 484 kts 65°
2026-05-06 11:22 44.07066 -77.89230 20130 ft 486 kts 65°
2026-05-06 11:22 44.08502 -77.84958 20379 ft 489 kts 65°
2026-05-06 11:22 44.09945 -77.80660 20636 ft 491 kts 65°
2026-05-06 11:22 44.11390 -77.76347 20885 ft 494 kts 65°
2026-05-06 11:23 44.12843 -77.72003 21143 ft 496 kts 65°
2026-05-06 11:23 44.14300 -77.67642 21379 ft 498 kts 65°
2026-05-06 11:23 44.15764 -77.63252 21624 ft 501 kts 65°
2026-05-06 11:23 44.17233 -77.58839 21865 ft 503 kts 65°
2026-05-06 11:24 44.18688 -77.54468 22056 ft 507 kts 65°
2026-05-06 11:24 44.20348 -77.50125 22283 ft 509 kts 57°
2026-05-06 11:24 44.22421 -77.46130 22534 ft 510 kts 50°
2026-05-06 11:24 44.24640 -77.42251 22762 ft 512 kts 50°
2026-05-06 11:25 44.26878 -77.38376 23014 ft 514 kts 50°
2026-05-06 11:25 44.29125 -77.34473 23270 ft 517 kts 50°
2026-05-06 11:25 44.31374 -77.30556 23597 ft 516 kts 49°
2026-05-06 11:25 44.33622 -77.26630 23814 ft 518 kts 49°
2026-05-06 11:26 44.35875 -77.22689 23990 ft 521 kts 49°
2026-05-06 11:26 44.38138 -77.18721 24192 ft 523 kts 50°
2026-05-06 11:26 44.40405 -77.14741 24296 ft 526 kts 50°
2026-05-06 11:26 44.42694 -77.10715 24438 ft 530 kts 50°
2026-05-06 11:27 44.44990 -77.06672 24662 ft 531 kts 50°
2026-05-06 11:27 44.47283 -77.02627 24937 ft 531 kts 50°
2026-05-06 11:27 44.48809 -76.99932 25115 ft 532 kts 50°
2026-05-06 11:27 44.51111 -76.95861 25332 ft 534 kts 50°
2026-05-06 11:28 44.53418 -76.91778 25547 ft 536 kts 50°
2026-05-06 11:28 44.55733 -76.87673 25770 ft 538 kts 50°
2026-05-06 11:28 44.58057 -76.83548 25964 ft 539 kts 50°
2026-05-06 11:28 44.60386 -76.79407 26179 ft 541 kts 50°
2026-05-06 11:29 44.62717 -76.75257 26456 ft 542 kts 50°
2026-05-06 11:29 44.65049 -76.71096 26718 ft 543 kts 50°
2026-05-06 11:29 44.67386 -76.66923 26912 ft 545 kts 50°
2026-05-06 11:29 44.69734 -76.62725 27086 ft 547 kts 50°
2026-05-06 11:30 44.72089 -76.58506 27284 ft 549 kts 50°
2026-05-06 11:30 44.74449 -76.54274 27501 ft 551 kts 50°
2026-05-06 11:30 44.76813 -76.50028 27717 ft 553 kts 50°
2026-05-06 11:30 44.79186 -76.45758 27983 ft 554 kts 50°
2026-05-06 11:31 44.81565 -76.41472 28203 ft 556 kts 50°
2026-05-06 11:31 44.83949 -76.37169 28412 ft 558 kts 50°
2026-05-06 11:31 44.86345 -76.32840 28631 ft 561 kts 50°
2026-05-06 11:31 44.88743 -76.28500 28823 ft 563 kts 51°
2026-05-06 11:32 44.91152 -76.24133 29035 ft 565 kts 51°
2026-05-06 11:32 44.93576 -76.19769 29258 ft 566 kts 49°
2026-05-06 11:32 44.96093 -76.15472 29447 ft 569 kts 48°
2026-05-06 11:32 44.98667 -76.11226 29611 ft 570 kts 47°
2026-05-06 11:33 45.01269 -76.06978 29801 ft 573 kts 47°
2026-05-06 11:33 45.03882 -76.02703 29988 ft 575 kts 47°
2026-05-06 11:33 45.06488 -75.98409 30200 ft 576 kts 47°
2026-05-06 11:33 45.09090 -75.94085 30392 ft 578 kts 47°
2026-05-06 11:34 45.11689 -75.89743 30597 ft 580 kts 48°
2026-05-06 11:34 45.14293 -75.85371 30801 ft 581 kts 48°
2026-05-06 11:34 45.16890 -75.80997 31115 ft 579 kts 48°
2026-05-06 11:34 45.19475 -75.76635 31426 ft 578 kts 48°
2026-05-06 11:35 45.22058 -75.72270 31717 ft 577 kts 48°
2026-05-06 11:35 45.24633 -75.67914 32012 ft 576 kts 48°
2026-05-06 11:35 45.27172 -75.63615 32321 ft 576 kts 49°
2026-05-06 11:35 45.29753 -75.59241 32475 ft 578 kts 49°
2026-05-06 11:36 45.32330 -75.54865 32687 ft 578 kts 48°
2026-05-06 11:36 45.34900 -75.50495 33115 ft 574 kts 48°
2026-05-06 11:36 45.37453 -75.46145 33468 ft 572 kts 49°
2026-05-06 11:36 45.40002 -75.41797 33750 ft 572 kts 49°
2026-05-06 11:37 45.42547 -75.37449 33989 ft 571 kts 49°
2026-05-06 11:37 45.45090 -75.33098 34222 ft 572 kts 48°
2026-05-06 11:37 45.47630 -75.28745 34422 ft 571 kts 48°
2026-05-06 11:37 45.50166 -75.24391 34671 ft 570 kts 48°
2026-05-06 11:38 45.52695 -75.20043 34915 ft 569 kts 48°
2026-05-06 11:38 45.55215 -75.15705 35164 ft 568 kts 48°
2026-05-06 11:38 45.57734 -75.11359 35386 ft 567 kts 48°
2026-05-06 11:38 45.60243 -75.07025 35622 ft 567 kts 48°
2026-05-06 11:39 45.62761 -75.02672 35744 ft 569 kts 48°
2026-05-06 11:39 45.65283 -74.98303 35942 ft 568 kts 48°
2026-05-06 11:39 45.67789 -74.93954 36204 ft 566 kts 47°
2026-05-06 11:39 45.70291 -74.89604 36436 ft 565 kts 47°
2026-05-06 11:40 45.72778 -74.85274 36672 ft 564 kts 47°
2026-05-06 11:40 45.75266 -74.80937 36840 ft 564 kts 47°
2026-05-06 11:40 45.77760 -74.76582 36876 ft 567 kts 47°
2026-05-06 11:41 45.82779 -74.67803 36877 ft 569 kts 47°
2026-05-06 11:41 45.87791 -74.59004 36877 ft 569 kts 47°
2026-05-06 11:42 45.92789 -74.50197 36889 ft 569 kts 48°
2026-05-06 11:42 45.97788 -74.41365 36882 ft 570 kts 48°
2026-05-06 11:43 46.02779 -74.32520 36876 ft 569 kts 48°
2026-05-06 11:43 46.07727 -74.23723 36876 ft 569 kts 48°
2026-05-06 11:44 46.15182 -74.10413 36875 ft 569 kts 48°
2026-05-06 11:44 46.20149 -74.01507 36875 ft 569 kts 48°
2026-05-06 11:45 46.25110 -73.92585 36909 ft 570 kts 48°
2026-05-06 11:45 46.30061 -73.83658 36873 ft 570 kts 48°
2026-05-06 11:46 46.35010 -73.74705 36851 ft 570 kts 48°
2026-05-06 11:46 46.39947 -73.65731 36870 ft 569 kts 48°
2026-05-06 11:47 46.44872 -73.56759 36869 ft 569 kts 48°
2026-05-06 11:47 46.49800 -73.47762 36871 ft 569 kts 48°
2026-05-06 11:48 46.54721 -73.38748 36870 ft 569 kts 48°
2026-05-06 11:48 46.59628 -73.29721 36866 ft 569 kts 48°
2026-05-06 11:49 46.64502 -73.20727 36870 ft 570 kts 48°
2026-05-06 11:49 46.69405 -73.11651 36869 ft 570 kts 49°
2026-05-06 11:50 46.74300 -73.02559 36926 ft 570 kts 49°
2026-05-06 11:50 46.79189 -72.93447 36868 ft 571 kts 49°
2026-05-06 11:51 46.84080 -72.84307 36866 ft 571 kts 49°
2026-05-06 11:51 46.88969 -72.75141 36858 ft 571 kts 49°
2026-05-06 11:52 46.93846 -72.65954 36857 ft 572 kts 49°
2026-05-06 11:52 46.98721 -72.56747 36855 ft 572 kts 49°
2026-05-06 11:53 47.03590 -72.47525 36858 ft 572 kts 49°
2026-05-06 11:53 47.08441 -72.38299 36863 ft 571 kts 49°
2026-05-06 11:54 47.13282 -72.29062 36857 ft 571 kts 49°
2026-05-06 11:54 47.18120 -72.19806 36853 ft 571 kts 49°
2026-05-06 11:55 47.22953 -72.10532 36853 ft 571 kts 49°
2026-05-06 11:55 47.27774 -72.01242 36851 ft 571 kts 49°
2026-05-06 11:56 47.32582 -71.91944 36835 ft 571 kts 49°
2026-05-06 11:56 47.37387 -71.82623 36816 ft 570 kts 49°
2026-05-06 11:57 47.42176 -71.73302 36821 ft 569 kts 50°
2026-05-06 11:57 47.46956 -71.63967 36809 ft 569 kts 50°
2026-05-06 11:58 47.51725 -71.54622 36810 ft 569 kts 50°
2026-05-06 11:58 47.56452 -71.45325 36817 ft 569 kts 50°
2026-05-06 11:59 47.61204 -71.35946 36806 ft 569 kts 50°
2026-05-06 11:59 47.65950 -71.26554 36800 ft 569 kts 50°
2026-05-06 12:00 47.70687 -71.17156 36813 ft 569 kts 50°
2026-05-06 12:00 47.75412 -71.07736 36818 ft 568 kts 50°
2026-05-06 12:01 47.80119 -70.98313 36822 ft 568 kts 50°
2026-05-06 12:01 47.84822 -70.88874 36847 ft 568 kts 50°
2026-05-06 12:02 47.89512 -70.79418 36846 ft 568 kts 50°
2026-05-06 12:02 47.94205 -70.69941 36856 ft 569 kts 51°
2026-05-06 12:03 47.98898 -70.60433 36852 ft 569 kts 51°
2026-05-06 12:03 48.03581 -70.50913 36817 ft 569 kts 51°
2026-05-06 12:04 48.08242 -70.41363 36852 ft 567 kts 51°
2026-05-06 12:04 48.12889 -70.31835 36846 ft 566 kts 51°
2026-05-06 12:05 48.17519 -70.22286 36845 ft 567 kts 51°
2026-05-06 12:05 48.22150 -70.12730 36847 ft 567 kts 51°
2026-05-06 12:06 48.26745 -70.03212 36846 ft 567 kts 51°
2026-05-06 12:06 48.31370 -69.93611 36842 ft 567 kts 51°
2026-05-06 12:07 48.35984 -69.83991 36839 ft 567 kts 51°
2026-05-06 12:07 48.40590 -69.74358 36860 ft 567 kts 52°
2026-05-06 12:08 48.45180 -69.64707 36838 ft 567 kts 52°
2026-05-06 12:08 48.49760 -69.55023 36841 ft 567 kts 52°
2026-05-06 12:09 48.54344 -69.45335 36845 ft 567 kts 52°
2026-05-06 12:09 48.59052 -69.35784 36843 ft 567 kts 47°
2026-05-06 12:10 48.64155 -69.26721 36841 ft 566 kts 46°
2026-05-06 12:10 48.69294 -69.17688 36844 ft 567 kts 46°
2026-05-06 12:11 48.74366 -69.08549 36848 ft 567 kts 47°
2026-05-06 12:11 48.79392 -68.99348 36844 ft 566 kts 47°
2026-05-06 12:12 48.84397 -68.90127 36848 ft 565 kts 47°
2026-05-06 12:12 48.89392 -68.80905 36848 ft 565 kts 47°
2026-05-06 12:13 48.94384 -68.71667 36848 ft 567 kts 47°
2026-05-06 12:13 48.99385 -68.62380 36848 ft 567 kts 47°
2026-05-06 12:14 49.04379 -68.53074 36848 ft 567 kts 48°
2026-05-06 12:14 49.09363 -68.43752 36848 ft 567 kts 48°
2026-05-06 12:15 49.13502 -68.35985 36852 ft 567 kts 48°
2026-05-06 12:15 49.18474 -68.26624 36850 ft 567 kts 48°
2026-05-06 12:16 49.23435 -68.17255 36849 ft 565 kts 48°
2026-05-06 12:16 49.28368 -68.07903 36839 ft 565 kts 48°
2026-05-06 12:17 49.33297 -67.98524 36845 ft 565 kts 48°
2026-05-06 12:17 49.38221 -67.89123 36856 ft 565 kts 49°
2026-05-06 12:18 49.43137 -67.79700 36850 ft 566 kts 49°
2026-05-06 12:18 49.48051 -67.70251 36844 ft 567 kts 49°
2026-05-06 12:19 49.52966 -67.60759 36841 ft 567 kts 49°
2026-05-06 12:19 49.57878 -67.51249 36840 ft 567 kts 49°
2026-05-06 12:20 49.62782 -67.41722 36842 ft 567 kts 49°
2026-05-06 12:20 49.67673 -67.32184 36828 ft 565 kts 49°
2026-05-06 12:21 49.72502 -67.22731 36848 ft 564 kts 50°
2026-05-06 12:21 49.77342 -67.13190 36840 ft 564 kts 50°
2026-05-06 12:22 49.82195 -67.03634 36835 ft 565 kts 50°
2026-05-06 12:22 49.87047 -66.94046 36835 ft 565 kts 50°
2026-05-06 12:23 49.91892 -66.84426 36836 ft 565 kts 50°
2026-05-06 12:23 49.96724 -66.74792 36844 ft 566 kts 50°
2026-05-06 12:24 50.01554 -66.65126 36838 ft 566 kts 50°
2026-05-06 12:24 50.06377 -66.55440 36834 ft 566 kts 50°
2026-05-06 12:25 50.11190 -66.45739 36850 ft 566 kts 51°
2026-05-06 12:25 50.15985 -66.36037 36841 ft 565 kts 51°
2026-05-06 12:26 50.20777 -66.26305 36843 ft 565 kts 51°
2026-05-06 12:26 50.25559 -66.16558 36840 ft 565 kts 51°
2026-05-06 12:27 50.30334 -66.06791 36836 ft 565 kts 51°
2026-05-06 12:27 50.35106 -65.96993 36836 ft 566 kts 51°
2026-05-06 12:28 50.39830 -65.87255 36836 ft 566 kts 52°
2026-05-06 12:28 50.44586 -65.77414 36869 ft 566 kts 52°
2026-05-06 12:29 50.49337 -65.67550 36835 ft 567 kts 52°
2026-05-06 12:29 50.54092 -65.57640 36837 ft 568 kts 52°
2026-05-06 12:30 50.58838 -65.47709 36833 ft 568 kts 52°
2026-05-06 12:30 50.63574 -65.37762 36835 ft 568 kts 52°
2026-05-06 12:31 50.68305 -65.27788 36828 ft 568 kts 52°
2026-05-06 12:31 50.73028 -65.17791 36832 ft 568 kts 53°
2026-05-06 12:32 50.77735 -65.07771 36822 ft 568 kts 53°
2026-05-06 12:32 50.82434 -64.97726 36814 ft 568 kts 53°
2026-05-06 12:33 50.87136 -64.87677 37103 ft 565 kts 53°
2026-05-06 12:33 50.89459 -64.82694 37541 ft 559 kts 53°
2026-05-06 12:33 50.91755 -64.77764 38013 ft 553 kts 53°
2026-05-06 12:34 50.94020 -64.72887 38412 ft 548 kts 53°
2026-05-06 12:34 50.96271 -64.68032 38617 ft 545 kts 54°